Showing default

OPS 6582 (TRANSIT 5E-5), 959

Orbit data source: Space-Track

OPS 6582 (TRANSIT 5E-5), 959 is a payload satellite owned by USN BuWeps (US) in LEO that was launched on Sun, 13 Dec 1964 UTC via a THOR ABLESTAR launch vehicle from the Air Force Western Test Range (AFWTR). Payload-class satellites include a variety of spacecraft equipped with specific instruments for various scientific and technological missions. These include communications satellites like Starlink; space stations such as the ISS; scientific satellites like the Hubble; Earth observation satellites from companies like Planet Labs, Umbra, and HawkEye 360; GPS; miniature CubeSats for education and research; and military/defense satellites.

Loading next visibility...
Identifier
959, 1964-083C
Orbit
LEO
Country
Flag of USUS
Related business
Manufacturer
APL
Mission
Civil Astronomy
Bus & Motor
TRANSIT 5, Unknown motor
Mass
77 kg wet, 77 kg dry
Launch date (UTC)
1964-12-13 (61 years ago)
Launch vehicle
THOR ABLESTAR
Launch site
Air Force Western Test Range (AFWTR)
Object type
Payload
Rocket body
Debris
Shape & HBR
Oct Cyl + 4 Pan + 1 Rod, 3.0 m
Radar Cross Section
1.914 m², Large (>1 m²)

Expand to show TLE details & history
Last TLE update: 22 hours ago

TLE from 22 hours ago
0 OPS 6582 (TRANSIT 5E-5)
1 00959U 64083C   25258.24372233  .00000216  00000-0  26504-3 0  9991
2 00959  90.0079 187.0629 0043728  37.1350 128.9486 13.62380873 12772
Epoch: 2025-09-15T05:50Z
TLE epoch observation values (Epoch: 2025-09-15T05:50:57.609Z)
Latitude
13.49296°
Longitude
-75.12642°
Altitude
1,049.729 km
Speed
7.318 km/s
True Right ascension
00h 28m 15s
True Declination
13° 25' 06"
Sunlit
Object was in full shadow at epoch
Visualization orbit readout
Latitude
Unknown
Longitude
Unknown
Altitude
Unknown
Speed
Unknown
Apparent Right ascension
Unknown
Apparent Declination
Unknown
Sunlit
N/A
Visualization observer readout
Local Sidereal Time
20:46:47
Azimuth
Unknown
Elevation
Unknown
Doppler factor
Unknown
Orbital elements
Apogee altitude
1,056.452 km
Perigee altitude
991.715 km
Semi-major axis
7,402.221 km
Eccentricity
0.00437
Inclination
90.0079°
RAAN
187.0629°
Arg. of periapsis
37.135°
True anomaly
129.33696°
Mean anomaly
128.9486°
Eccentric anomaly
129.14291°
Mean motion
3.408 °/min
Orbital period
105.63 mins
BSTAR
0.00026504
Loading maneuver chart data...
Computing Atmospheric mass density...

Documentation

Showing up to 5 results
|